Location: Campillo
(40.8621°N, 4.2488°W)
Time: 14:35:47
(UTC+00:00)

Cosmos 1777 Rocket - Pass Details

Date: 03 October 2021
Orbit: 759 x 775 km, 74.0° (Epoch: 23 October)

Event Time Altitude Azimuth Distance (km) Brightness Sun altitude
Rises 18:19:04 0° 211° (SSW) 3,221 7.7 -5.3°
Reaches altitude 10° 18:21:30 10° 216° (SW) 2,297 7.0 -5.7°
Maximum altitude 18:26:34 52° 293° (WNW) 945 5.0 -6.7°
Drops below altitude 10° 18:31:40 10° 10° (N) 2,302 6.4 -7.7°
Sets 18:34:07 0° 15° (NNE) 3,230 7.1 -8.1°
